Regional Weather Roundup
Issued by NWS

Home | Current Version | Previous Version | Text Only | Print | Product List | Glossary Off
Versions: 1 2 3 4 5 6 7 8 9 10 11 12 13 14 15 16 17 18 19 20 21 22 23 24 25 26 27 28 29 30 31 32 33 34 35 36 37 38 39 40 41 42 43 44 45 46 47 48 49 50

970
ASUS43 KDMX 222101
RWRIA

WEATHER ROUNDUP FOR IOWA
NATIONAL WEATHER SERVICE DES MOINES IA
400 PM CDT FRI SEP 22 2017

NOTE: "FAIR" INDICATES FEW OR NO CLOUDS BELOW 12,000 FEET WITH NO
SIGNIFICANT WEATHER AND/OR OBSTRUCTIONS TO VISIBILITY.

* - THESE STATIONS ARE NOT NWS STATIONS...THUS NOT UNDER NWS
QUALITY CONTROL.  THEY ALSO DO NOT REPORT WEATHER SUCH
AS PRECIPITATION OR FOG.

IAZ001>003-012>014-020>022-031>034-043>046-222200-
   NORTHWEST IOWA

CITY           SKY/WX    TMP DP  RH WIND       PRES   REMARKS
CARROLL *      SUNNY     93  70  46 S17G29    29.84F HX  99
CHEROKEE *     SUNNY     91  69  48 S23G30    29.79S HX  95
DENISON *      SUNNY     91  70  49 S25G31    29.83F HX  97
LE MARS *      SUNNY     93  70  46 S21G31    29.74F HX  99
ORANGE CITY *  SUNNY     91  72  52 S24G31    29.76F HX  98
SHELDON *      SUNNY     91  68  46 S20G32    29.75F HX  95
SIOUX CITY     SUNNY     94  70  45 S25G33    29.76S HX 100
SPENCER        SUNNY     93  68  43 S25G33    29.79S HX  97
STORM LAKE *   SUNNY     91  70  49 S22G36    29.81S HX  97
$$

IAZ055>058-069>071-079>083-090>094-222200-
   SOUTHWEST IOWA

CITY           SKY/WX    TMP DP  RH WIND       PRES   REMARKS
ATLANTIC *     SUNNY     91  68  46 S18G30    29.85S HX  95
AUDUBON *      SUNNY     90  72  55 S18G25    29.87F HX  96
CLARINDA *     SUNNY     93  68  43 S17G23    29.88F HX  97
COUNCIL BLFS * SUNNY     91  72  52 S18G29    29.83S HX  98
CRESTON *      SUNNY     91  66  43 S22       29.91F HX  94
HARLAN  *      SUNNY     93  70  46 S15G24    29.87S HX  99
LAMONI         SUNNY     90  68  48 SE14G25   29.92F HX  94
RED OAK *      SUNNY     93  70  46 S21       29.85F HX  99
SHENANDOAH *   SUNNY     93  68  43 S23G29    29.85F HX  97
$$

IAZ047>049-059>061-072>074-084-222200-
   CENTRAL IOWA

CITY           SKY/WX    TMP DP  RH WIND       PRES   REMARKS
AMES           SUNNY     90  71  53 S16G25    29.89S HX  96
ANKENY *       SUNNY     91  70  49 S13G26    29.90S HX  97
BOONE *        SUNNY     91  68  46 S17G25    29.88S HX  95
CHARITON *     SUNNY     88  70  55 S16G22    29.92F HX  92
DES MOINES     MOSUNNY   91  69  48 S17       29.89F HX  96
GRINNELL*      SUNNY     90  67  46 S14G23    29.95F HX  93
KNOXVILLE *    SUNNY     90  68  48 S16G23    29.91F HX  93
MARSHALLTOWN   SUNNY     90  69  50 S18G26    29.91F HX  94
NEWTON *       SUNNY     90  68  48 S18       29.92F HX  93
PELLA *        SUNNY     91  66  43 S16G22    29.94S HX  93
PERRY *          N/A     94  61  33 S17G25    29.87S HX  94
$$

IAZ004>006-015-016-023>025-035-036-222200-
   NORTH CENTRAL IOWA

CITY           SKY/WX    TMP DP  RH WIND       PRES   REMARKS
ALGONA *       SUNNY     91  70  49 S21G30    29.83S HX  97
CLARION *      SUNNY     93  68  43 S21G31    29.87S HX  97
ESTHERVILLE    SUNNY     91  70  49 S21G31    29.79F HX  96
FORT DODGE *   SUNNY     92  68  45 S20G29    29.85F HX  96
MASON CITY     SUNNY     91  65  41 S24G32    29.89S HX  93
FOREST CITY *    N/A     90  66  45 S23       29.86S HX  92
WEBSTER CITY * SUNNY     91  66  43 S20G28    29.85S HX  94
IOWA FALLS *     N/A     91  68  46 S20G25    29.91S HX  95
$$

IAZ007>011-017>019-026>030-037>042-050>054-066-222200-
   NORTHEAST IOWA

CITY           SKY/WX    TMP DP  RH WIND       PRES   REMARKS
CEDAR RAPIDS   MOSUNNY   91  66  43 S14G25    29.95F HX  93
CHARLES CITY * SUNNY     91  66  43 S16G24    29.91F HX  94
CLINTON *      SUNNY    N/A N/A N/A S15       29.99F
DECORAH *      SUNNY     91  64  40 S9G21     29.92F HX  93
DUBUQUE        SUNNY     88  67  49 S16       29.99F HX  91
MONTICELLO *   SUNNY     91  66  43 S14G21    29.96F HX  94
OELWEIN *      SUNNY     93  66  40 S20G29    29.94F HX  96
WATERLOO       SUNNY     92  64  39 S18G24    29.90F HX  93
$$

IAZ064-065-067-068-078-222200-
   EAST CENTRAL IOWA

CITY           SKY/WX    TMP DP  RH WIND       PRES   REMARKS
DAVENPORT      SUNNY     90  66  45 S12G20    30.00F HX  92
IOWA CITY      MOSUNNY   94  67  41 S16G25    29.97F HX  97
MUSCATINE *    PTSUNNY   93  66  40 S16       29.96F HX  96
QUAD CITIES    SUNNY     93  65  39 S12       29.97F HX  95
$$

IAZ062-063-075>077-085>089-095>099-222200-
   SOUTHEAST IOWA

CITY           SKY/WX    TMP DP  RH WIND       PRES   REMARKS
BURLINGTON     SUNNY     92  67  43 S12       29.97F HX  95
FAIRFIELD *    MOSUNNY   91  66  43 S15G22    29.96F HX  94
FORT MADISON * SUNNY     93  64  38 S12G18    29.98F HX  95
KEOKUK *       SUNNY     93  64  38 SW15G22   29.96F HX  95
OSKALOOSA *      N/A     91  67  44 S15G21    29.95F HX  94
OTTUMWA        SUNNY     91  68  46 S17       29.95F HX  95
WASHINGTON *   SUNNY     91  68  46 S8        29.97F HX  95
$$

ABBREVIATIONS USED IN REMARKS
   TC - TEMPERATURES IN CELSIUS
  WCI - WIND CHILL INDEX
   HX - HEAT INDEX
  VSB - VISIBILITY
$$





USA.gov is the U.S. government's official web portal to all federal, state and local government web resources and services.